Snowfall_Accumulation
0.0 1.3 1.2 0.0 0.1 0.0 0.7 3.2 2.0 0.0 0.0 0.5 0.3 0.4 0.0 0.0 0.0 0.0 0.0 0.0 0.0 0.0 0.0 0.0 0.0 0.0 0.0 0.0 0.0 0.0 0.0 0.0 0.0 0.0 0.0 0.0 0.0 0.0 0.0 0.0 0.0 0.0 0.0 0.0
0.0 1.0 0.0 0.1 0.0 1.0 0.7 3.4 3.8 1.2 0.0 0.0 1.1 0.5 0.0 0.0 0.0 0.0 0.0 0.0 0.0 0.0 0.0 0.0 0.1 0.0 0.0 0.0 0.0 0.0 0.0 0.0 0.0 0.0 0.0 0.0 0.0 0.0 0.0 0.0 0.0 0.0 0.0 0.0
2.2 0.0 0.0 0.0 0.3 1.7 2.0 3.8 3.5 2.7 1.6 1.3 1.0 1.5 0.0 0.0 0.0 0.0 0.0 0.0 0.0 0.0 0.0 0.0 0.1 0.1 0.1 0.1 0.1 0.0 0.0 0.0 0.0 0.0 0.0 0.0 0.0 0.0 0.0 0.0 0.0 0.0 0.0 0.0
1.4 0.0 0.0 0.3 0.6 0.3 4.4 0.0 0.0 1.6 6.5 8.1 0.1 9.9 0.4 0.0 0.0 0.0 0.0 0.0 0.0 0.0 0.0 0.0 0.0 0.1 0.0 0.1 0.1 0.0 0.0 0.0 0.0 0.0 0.0 0.0 0.0 0.0 0.0 0.0 0.0 0.0 0.0 0.0
11.1 0.0 0.1 1.0 0.0 0.0 1.0 0.0 0.1 1.8 5.4 8.4 4.9 13.6 2.2 0.0 0.0 0.0 0.0 0.0 0.0 0.0 0.0 0.0 0.0 0.1 0.0 0.0 0.0 0.0 0.0 0.2 0.0 0.0 0.0 0.0 0.0 0.0 0.0 0.0 0.0 0.0 0.0 0.0
1.4 0.0 0.0 1.2 0.4 0.2 0.0 0.1 0.1 1.9 5.4 21.5 3.6 6.0 1.7 1.2 2.0 0.0 0.0 0.0 0.0 0.0 0.0 0.0 0.0 0.0 0.0 0.0 0.0 0.0 0.0 0.3 0.0 0.0 0.0 0.0 0.0 0.0 0.0 0.0 0.0 0.0 0.0 0.0
8.8 4.0 0.3 1.2 3.0 0.4 2.6 12.2 24.0 20.5 23.3 7.0 1.1 3.7 5.4 0.4 0.0 0.0 0.0 0.0 0.0 0.0 0.0 0.0 0.0 0.0 0.0 0.0 0.0 0.0 0.0 0.3 0.0 0.0 0.0 0.0 0.0 0.0 0.0 0.0 0.0 0.0 0.0 0.0
11.5 12.1 5.3 1.3 4.2 6.8 1.4 8.9 18.7 11.8 4.7 1.5 0.2 4.9 3.9 0.2 0.0 0.0 0.0 0.0 0.0 0.0 0.0 0.0 0.0 0.0 0.0 0.0 0.0 0.0 0.0 0.2 0.0 0.0 0.0 0.0 0.0 0.0 0.0 0.0 0.0 0.0 0.0 0.0
9.3 4.7 0.6 1.6 0.8 3.3 5.4 16.1 2.8 11.9 3.1 5.4 1.1 1.3 1.0 0.1 0.0 0.0 0.0 0.0 0.0 0.0 0.0 0.0 0.0 0.0 0.0 0.0 0.0 0.0 0.0 0.1 0.0 0.0 0.0 0.0 0.0 0.0 0.0 0.0 0.0 0.0 0.0 0.0
5.4 5.9 0.2 1.0 1.6 1.4 6.3 4.6 12.4 25.0 17.0 4.2 1.1 2.5 3.9 1.0 0.5 0.0 0.0 0.3 0.2 0.0 0.0 0.1 0.0 0.0 0.0 0.0 0.0 0.0 0.0 0.0 0.0 0.0 0.0 0.0 0.0 0.0 0.0 0.0 0.0 0.0 0.0 0.0
4.5 14.7 1.3 0.8 5.3 8.2 9.9 23.9 13.6 12.5 7.8 10.9 5.3 5.7 5.7 4.3 3.7 3.5 1.8 1.5 1.5 1.3 0.8 0.2 0.0 0.0 0.0 0.0 0.0 0.0 0.0 0.0 0.0 0.0 0.0 0.0 0.0 0.0 0.0 0.0 0.0 0.0 0.0 0.0
4.1 14.8 11.7 2.7 3.4 5.1 4.5 11.3 15.8 16.2 7.3 9.0 11.7 9.5 3.9 6.0 6.6 8.3 6.6 4.5 2.8 2.6 1.3 0.7 0.2 0.1 0.0 0.0 0.0 0.0 0.0 0.0 0.0 0.0 0.0 0.0 0.0 0.0 0.0 0.0 0.0 0.0 0.0 0.0
6.8 18.9 12.5 8.6 5.4 2.6 8.9 7.8 10.4 12.5 14.6 14.5 17.9 15.9 5.9 5.6 6.5 8.7 8.8 6.5 5.8 3.7 2.5 1.5 0.3 0.1 0.1 0.0 0.0 0.0 0.0 0.0 0.0 0.0 0.0 0.0 0.0 0.0 0.0 0.0 0.0 0.0 0.0 0.0
3.8 10.4 12.6 12.7 13.4 12.7 12.5 6.3 8.3 22.2 30.1 12.7 16.1 15.0 10.6 8.7 7.2 8.9 6.7 8.1 7.2 6.2 5.9 3.0 1.2 0.5 0.2 0.1 0.0 0.0 0.0 0.0 0.0 0.0 0.0 0.0 0.0 0.0 0.0 0.0 0.0 0.0 0.0 0.0
2.2 13.9 4.3 2.3 2.2 9.6 10.6 10.4 10.9 21.5 13.2 20.2 16.7 13.8 15.7 15.4 17.9 16.6 14.7 11.8 8.1 7.2 7.4 4.4 2.0 1.0 0.4 0.2 0.1 0.1 0.0 0.0 0.0 0.0 0.0 0.0 0.0 0.0 0.0 0.0 0.0 0.0 0.0 0.0
3.1 13.6 10.4 7.6 3.1 5.9 9.4 6.2 7.2 10.7 8.7 11.7 9.9 8.7 10.9 14.6 13.0 12.7 11.0 9.9 9.5 10.9 10.4 6.2 3.7 1.0 0.4 0.3 0.1 0.0 0.0 0.0 0.0 0.0 0.0 0.0 0.0 0.0 0.0 0.0 0.0 0.0 0.0 0.0
4.3 7.3 11.1 7.3 3.2 5.7 12.8 14.9 9.3 9.0 10.5 13.0 17.6 16.4 13.9 13.5 13.0 14.8 14.1 14.1 13.2 16.3 13.8 8.8 4.4 2.7 1.4 0.4 0.1 0.0 0.0 0.0 0.0 0.0 0.0 0.0 0.0 0.0 0.0 0.0 0.0 0.0 0.0 0.0
0.6 5.6 8.2 8.0 4.8 13.5 7.4 4.3 6.3 8.7 9.6 9.7 10.1 12.5 14.0 13.2 10.3 11.8 14.3 17.4 16.7 17.6 13.9 9.9 7.5 3.6 1.7 0.4 0.2 0.1 0.0 0.0 0.0 0.0 0.0 0.0 0.4 0.0 0.0 0.3 0.9 0.7 0.0 1.2
1.8 2.6 7.2 6.3 3.1 1.4 1.0 1.0 2.6 6.5 8.1 5.4 7.2 7.0 7.3 5.6 4.6 4.8 5.1 11.0 16.9 18.9 16.4 14.3 12.5 5.9 2.6 1.3 0.2 0.1 0.0 0.0 0.0 0.5 1.1 0.0 1.0 0.5 0.9 3.8 3.0 7.1 3.5 9.8
0.0 0.8 7.4 4.3 5.2 2.3 1.5 0.1 0.3 1.5 8.1 1.0 5.3 6.9 7.0 5.8 6.0 6.3 7.6 11.9 14.1 15.0 16.8 20.4 13.4 3.9 2.3 0.3 0.0 0.0 0.0 0.0 0.0 0.0 0.0 0.0 0.0 0.1 2.5 6.5 5.9 5.0 5.6 6.1
3.9 4.3 5.5 2.9 4.8 0.8 0.0 0.0 0.2 1.7 3.1 2.7 5.0 7.3 8.0 10.6 13.7 11.1 9.9 10.2 12.8 14.4 16.8 18.7 12.4 3.1 0.9 0.0 0.0 0.0 0.0 0.0 1.2 2.1 2.5 2.6 0.6 1.2 1.3 5.6 4.7 2.9 2.2 2.1
4.3 3.3 2.9 3.1 5.5 2.1 0.0 0.0 0.9 1.9 0.5 2.4 3.6 5.2 8.0 6.1 5.4 5.5 6.3 8.1 11.6 13.7 17.1 20.7 16.0 10.1 7.5 5.8 0.0 0.7 4.4 1.5 1.8 4.7 2.1 4.1 3.1 2.2 1.6 0.2 0.1 2.1 2.2 3.5
6.4 4.3 3.2 1.4 0.3 0.0 0.0 0.0 0.0 0.0 0.9 0.9 3.6 3.0 5.1 3.7 3.3 3.0 4.5 5.7 9.4 14.0 18.2 22.5 25.6 21.4 8.4 5.3 4.6 4.1 5.7 5.4 6.3 4.5 4.8 7.7 7.3 6.1 4.9 3.0 3.4 6.1 5.1 4.8
1.2 0.8 1.1 0.1 0.0 0.0 0.0 0.0 0.0 0.0 0.4 0.3 2.0 3.0 2.2 3.1 1.8 1.6 1.8 4.0 7.1 10.2 17.4 22.5 19.6 15.9 6.2 7.6 10.0 3.8 5.2 4.7 4.4 6.9 7.8 7.4 7.6 7.6 9.9 9.0 7.9 6.7 9.1 8.7
1.7 0.1 0.3 0.2 0.0 0.1 0.0 0.0 0.2 0.1 0.0 0.1 0.2 1.0 2.2 2.3 1.0 1.8 1.5 2.6 5.7 9.1 15.0 19.3 19.7 18.7 11.8 7.4 11.1 8.5 7.5 6.0 7.2 7.8 9.1 9.2 9.4 8.8 8.5 8.8 8.6 8.1 7.6 5.7
1.7 1.7 1.4 0.2 0.0 0.6 0.3 0.1 0.0 0.5 0.7 0.9 1.6 1.1 1.2 2.1 2.2 1.5 1.5 1.8 4.3 7.8 12.8 16.6 19.2 19.0 18.7 14.6 8.5 9.6 9.3 7.2 6.6 7.1 7.3 6.8 6.9 6.8 5.8 5.7 7.4 7.9 6.7 6.5